Location: Borgo
(42.3939°N, 9.2791°E)
Time: 21:54:19
(UTC+00:00)

NOSS 2-1 (E) - Pass Details

Date: 24 January 2021
Orbit: 434 x 1768 km, 63.3° (Epoch: 27 February)

Event Time Altitude Azimuth Distance (km) Brightness Sun altitude
Rises 17:42:30 0° 212° (SSW) 2,497 7.4 -14.0°
Reaches altitude 10° 17:44:39 10° 212° (SSW) 1,565 6.3 -14.4°
Maximum altitude 17:47:58 81° 124° (SE) 444 2.7 -15.0°
Enters shadow 17:49:42 26° 40° (NE) 902 4.0 -15.3°
